Change the Weather History Date:

Wednesday, October 31, 2012

  Actual Average Record
Temperature  
Mean Temperature 58 °F 43 °F  
Max Temperature 76 °F 54 °F 76 °F (2012)
Min Temperature 40 °F 33 °F 11 °F (2002)
Degree Days  
Heating Degree Days 7 22  
Month to date heating degree days 471 496  
Since 1 July heating degree days 514 699  
Cooling Degree Days 0 0  
Month to date cooling degree days 0 1  
Year to date cooling degree days 750 510  
Growing Degree Days 8 (Base 50)    
Moisture  
Dew Point 29 °F    
Average Humidity 40    
Maximum Humidity 65    
Minimum Humidity 15    
Precipitation  
Precipitation 0.00 in 0.03 in 0.52 in (1956)
Month to date precipitation 0.45 0.81  
Year to date precipitation 7.58 8.10  
Sea Level Pressure  
Sea Level Pressure 29.94 in    
Wind  
Wind Speed 12 mph (ENE)    
Max Wind Speed 21 mph    
Max Gust Speed 25 mph    
Visibility 10 miles    
Events      
T = Trace of Precipitation, MM = Missing Value Source: NWS Daily Summary

Daily Weather History Graph

Daily Weather History Graph

Search for Another Location

Airport or City:

Trip Planner

Search our weather history database for the weather conditions in past years. The results will help you decide how hot, cold, wet, or windy it might be!

Date:

Astronomy

Oct. 31, 2012 Rise Set
Actual Time 8:11 AM MDT 6:30 PM MDT
Civil Twilight 7:41 AM MDT 7:00 PM MDT
Nautical Twilight 7:08 AM MDT 7:33 PM MDT
Astronomical Twilight 6:35 AM MDT 8:06 PM MDT
Moon 7:42 PM MDT (10/31) 9:58 AM MDT (10/31)
Length of Visible Light 11h 18m
Length of Day
10h 19m
Full, 97% of the Moon is Illuminated
Oct 31
Full
Nov 6
Last Quarter
Nov 13
New
Nov 20
First Quarter
Nov 28
Full

Hourly Weather History & Observations

Time (MDT) Temp. Windchill Dew Point Humidity Pressure Visibility Wind Dir Wind Speed Gust Speed Precip Events Conditions
12:53 AM 53.1 °F - 28.0 °F 38% 30.01 in 10.0 mi ENE 9.2 mph - N/A   Clear
1:53 AM 45.0 °F 38.5 °F 30.0 °F 56% 30.02 in 10.0 mi NNE 13.8 mph - N/A   Clear
2:53 AM 46.0 °F 39.9 °F 32.0 °F 58% 30.01 in 10.0 mi NE 13.8 mph - N/A   Clear
3:53 AM 45.0 °F 37.9 °F 30.9 °F 58% 30.00 in 10.0 mi NE 16.1 mph - N/A   Clear
4:53 AM 43.0 °F 35.4 °F 30.9 °F 62% 29.99 in 10.0 mi NE 16.1 mph - N/A   Clear
5:53 AM 42.1 °F 33.6 °F 30.9 °F 65% 30.01 in 10.0 mi NNE 18.4 mph - N/A   Clear
6:53 AM 41.0 °F 33.1 °F 30.0 °F 65% 30.04 in 10.0 mi NNE 15.0 mph - N/A   Clear
7:53 AM 42.1 °F 33.6 °F 30.0 °F 62% 30.03 in 10.0 mi NE 18.4 mph - N/A   Clear
8:53 AM 43.0 °F 34.8 °F 30.9 °F 62% 30.04 in 10.0 mi NE 18.4 mph 25.3 mph N/A   Clear
9:53 AM 48.0 °F - 33.1 °F 56% 30.02 in 10.0 mi NE 18.4 mph - N/A   Clear
10:53 AM 55.9 °F - 34.0 °F 44% 30.01 in 10.0 mi NE 16.1 mph - N/A   Clear
11:53 AM 62.1 °F - 34.0 °F 35% 29.98 in 10.0 mi NE 17.3 mph - N/A   Clear
1:53 PM 73.0 °F - 28.9 °F 20% 29.92 in 10.0 mi NE 11.5 mph - N/A   Clear
2:53 PM 75.0 °F - 28.0 °F 18% 29.88 in 10.0 mi East 8.1 mph 18.4 mph N/A   Clear
3:53 PM 75.9 °F - 25.0 °F 15% 29.86 in 10.0 mi East 4.6 mph - N/A   Clear
4:53 PM 73.0 °F - 24.1 °F 16% 29.86 in 10.0 mi ESE 5.8 mph - N/A   Clear
5:53 PM 66.0 °F - 26.1 °F 22% 29.87 in 10.0 mi ESE 4.6 mph - N/A   Clear
6:53 PM 61.0 °F - 26.1 °F 26% 29.88 in 10.0 mi East 9.2 mph - N/A   Clear
7:53 PM 61.0 °F - 25.0 °F 25% 29.87 in 10.0 mi ESE 6.9 mph - N/A   Clear
8:53 PM 59.0 °F - 26.1 °F 28% 29.87 in 10.0 mi East 10.4 mph - N/A   Clear
9:53 PM 59.0 °F - 26.1 °F 28% 29.84 in 10.0 mi East 10.4 mph - N/A   Clear
10:53 PM 57.9 °F - 26.1 °F 30% 29.83 in 10.0 mi ESE 9.2 mph - N/A   Clear
11:53 PM 55.9 °F - 27.0 °F 33% 29.83 in 10.0 mi SSE 4.6 mph - N/A   Clear